Latest Coastal Weather Observations for Northern Endeavour (near 10.5S 126E)

IDD60701

Issued at 12:35 pm CST Tuesday 16 September 2014 (issued every 10 minutes, with the page automatically refreshed every 10 minutes)

About coastal observations | Map of coastal stations | Coastal observations for NT | Marine services | Other Formats
Station Details ID: 200212 Name: NORTHERN ENDEAVOUR Lat: -10.61 Lon: 125.98 Height: 16.0 m
Data from the previous 72 hours. | See also: Recent months for locations in Northern Territory
Date/Time
CST
Temp

°C
Wind Pressure Rain
since 9am
mm
Weather Cloud Vis
km
Sea
Height
m
Swell
Dir
 
Speed
knots
Gust
knots
hPa Trend Height
m
Period
s
Dir
16/12:30pm 27.9 E 9 9 1013.6 - - - Partly cloudy 10 - - - -
16/12:20pm 27.6 E 7 11 1013.6 - - - Partly cloudy 10 - - - -
16/12:10pm 27.1 E 7 11 1013.6 - - - - 10 - - - -
16/12:00pm 27.0 E 8 10 1013.7 - - - - 10 - - - -
16/11:50am 27.0 ENE 9 10 1013.8 - - - Partly cloudy 10 - - - -
16/11:40am 26.8 ENE 9 11 1013.9 - - - Partly cloudy 10 - - - -
16/11:30am 26.6 ENE 9 10 1014.0 - - - Partly cloudy 10 - - - -
16/11:20am 26.4 ENE 9 11 1014.0 - - - Partly cloudy 10 - - - -
16/11:10am 26.6 ENE 10 10 1014.1 - - - - 10 - - - -
16/11:00am 26.7 ENE 10 10 1014.1 - - - - 10 - - - -
16/10:40am 26.9 ENE 8 10 1014.2 - - - Partly cloudy 10 - - - -
16/10:30am 26.7 ENE 7 10 1014.2 - - - Partly cloudy 10 - - - -
16/10:20am 26.8 ENE 7 9 1014.2 - - - Partly cloudy 10 - - - -
16/10:10am 26.8 ENE 6 7 1014.2 - - - Partly cloudy 10 - - - -
16/10:00am 26.7 E 6 6 1014.1 - - - Partly cloudy 10 - - - -
16/09:50am 26.3 NE 7 8 1014.0 - - - Partly cloudy 10 - - - -
16/09:40am 26.7 ENE 6 6 1014.0 - - - Partly cloudy 10 - - - -
16/09:30am 26.7 ENE 6 7 1013.8 - - - Partly cloudy 10 - - - -
16/09:20am 26.4 NE 7 8 1013.7 - - - Partly cloudy 10 - - - -
16/09:10am 26.2 NE 6 7 1013.7 - - - Partly cloudy 10 - - - -
16/09:00am 26.0 NE 5 5 1013.6 - - - Partly cloudy 10 - - - -
16/08:50am 26.0 NE 6 7 1013.4 - - - Partly cloudy 10 - - - -
16/08:40am 26.0 NE 6 7 1013.2 - - - - 10 - - - -
16/08:30am 25.9 NNE 7 9 1013.1 - - - - 10 - - - -
16/08:20am 26.0 NE 8 9 1013.0 - - - - 10 - - - -
16/08:10am 25.9 NE 8 9 1012.7 - - - - 10 - - - -
16/08:00am 25.8 NNE 8 10 1012.5 - - - - 10 - - - -
16/07:50am 25.8 NNE 7 9 1012.4 - - - - 3 - - - -
16/07:40am 25.7 NNE 8 9 1012.3 - - - - 10 - - - -
16/07:30am 25.6 NNE 7 9 1012.2 - - - - 10 - - - -
16/07:20am 25.7 NE 9 8 1012.0 - - - - 10 - - - -
16/07:10am 25.6 NE 8 9 1011.8 - - - - 10 - - - -
16/07:00am 25.5 NE 9 10 1011.7 - - - - 10 - - - -
16/06:50am 25.6 NNE 8 9 1011.6 - - - Partly cloudy 10 - - - -
16/06:40am 25.6 NNE 7 13 1011.6 - - - - 10 - - - -
16/06:30am 25.8 NNE 8 10 1011.5 - - - - 10 - - - -
16/06:20am 25.8 NNE 9 12 1011.4 - - - - 10 - - - -
16/06:10am 25.6 NNE 10 10 1011.3 - - - - 10 - - - -
16/06:00am 25.6 NNE 9 10 1011.2 - - - - 10 - - - -
16/05:50am 25.6 NNE 9 9 1011.2 - - - - 10 - - - -
16/05:40am 25.7 NNE 8 10 1011.1 - - - - 10 - - - -
16/05:30am 25.6 NNE 7 9 1011.1 - - - - 10 - - - -
16/05:20am 25.7 NNE 6 8 1011.0 - - - - 10 - - - -
16/05:10am 25.7 NNE 7 10 1011.0 - - - - 10 - - - -
16/05:00am 25.7 NNE 8 9 1010.9 - - - Partly cloudy 10 - - - -
16/04:50am 25.7 NE 7 8 1010.9 - - - Partly cloudy 10 - - - -
16/04:40am 25.7 NNE 7 9 1010.8 - - - Partly cloudy 10 - - - -
16/04:30am 25.7 NNE 7 9 1010.7 - - - - 10 - - - -
16/04:20am 25.7 NNE 8 10 1010.7 - - - - 10 - - - -
16/04:10am 25.7 NE 7 10 1010.8 - - - - 10 - - - -
16/04:00am 25.7 NE 6 7 1010.8 - - - - 10 - - - -
16/03:50am 25.8 NE 6 7 1010.9 - - - - 10 - - - -
16/03:40am 25.8 ENE 8 8 1010.9 - - - Partly cloudy 10 - - - -
16/03:30am 25.8 NE 6 10 1010.9 - - - Partly cloudy 10 - - - -
16/03:20am 25.8 NE 6 8 1010.9 - - - Partly cloudy 10 - - - -
16/03:10am 25.9 ENE 7 8 1011.0 - - - Partly cloudy 10 - - - -
16/03:00am 25.8 NE 7 9 1011.1 - - - Partly cloudy 10 - - - -
16/02:50am 25.9 ENE 5 7 1011.2 - - - Partly cloudy 10 - - - -
16/02:40am 25.9 E 5 8 1011.3 - - - Partly cloudy 10 - - - -
16/02:30am 25.9 NE 6 8 1011.4 - - - Partly cloudy 10 - - - -
16/02:20am 26.0 ENE 6 8 1011.5 - - - Partly cloudy 10 - - - -
16/02:10am 25.9 E 6 8 1011.6 - - - Partly cloudy 10 - - - -
16/02:00am 25.9 E 6 6 1011.7 - - - Partly cloudy 10 - - - -
16/01:50am 26.0 E 7 8 1011.7 - - - Partly cloudy 10 - - - -
16/01:40am 26.0 E 6 8 1011.8 - - - Partly cloudy 10 - - - -
16/01:30am 26.0 E 7 6 1011.9 - - - Partly cloudy 10 - - - -
16/01:20am 25.9 E 6 8 1012.0 - - - Partly cloudy 10 - - - -
16/01:10am 26.0 E 7 7 1012.1 - - - - 10 - - - -
16/01:00am 26.1 E 8 8 1012.0 - - - - 10 - - - -
16/12:50am 26.1 E 8 8 1012.1 - - - Partly cloudy 10 - - - -
16/12:40am 26.1 E 7 11 1012.2 - - - Partly cloudy 10 - - - -
16/12:30am 26.1 E 9 11 1012.3 - - - Partly cloudy 10 - - - -
16/12:20am 26.1 E 8 11 1012.5 - - - Partly cloudy 10 - - - -
16/12:10am 26.1 E 8 11 1012.5 - - - Partly cloudy 10 - - - -
16/12:00am 26.1 E 8 8 1012.6 - - - - 10 - - - -
 
Date/Time
CST
Temp

°C
Wind Pressure Rain
since 9am
mm
Weather Cloud Vis
km
Sea
Height
m
Swell
Dir
 
Speed
knots
Gust
knots
hPa Trend Height
m
Period
s
Dir
15/11:50pm 26.2 E 8 10 1012.7 - - - - 10 - - - -
15/11:40pm 26.1 ESE 8 10 1012.7 - - - Partly cloudy 10 - - - -
15/11:30pm 26.3 ESE 9 11 1012.7 - - - Partly cloudy 10 - - - -
15/11:20pm 26.3 ESE 9 11 1012.6 - - - Partly cloudy 10 - - - -
15/11:10pm 26.4 ESE 9 13 1012.7 - - - Partly cloudy 10 - - - -
15/11:00pm 26.2 ESE 9 8 1012.7 - - - - 10 - - - -
15/10:50pm 26.2 ESE 9 10 1012.7 - - - - 10 - - - -
15/10:40pm 26.2 ESE 9 10 1012.7 - - - - 10 - - - -
15/10:30pm 26.2 ESE 9 9 1012.8 - - - - 10 - - - -
15/10:20pm 26.2 ESE 9 9 1012.7 - - - - 10 - - - -
15/10:10pm 26.2 ESE 8 8 1012.7 - - - Partly cloudy 10 - - - -
15/10:00pm 26.2 ESE 8 9 1012.7 - - - Partly cloudy 10 - - - -
15/09:50pm 26.2 ESE 7 8 1012.8 - - - Partly cloudy 10 - - - -
15/09:40pm 26.3 SE 8 10 1012.7 - - - Partly cloudy 10 - - - -
15/09:30pm 26.2 ESE 6 9 1012.7 - - - Partly cloudy 10 - - - -
15/09:20pm 26.2 ESE 6 8 1012.7 - - - Partly cloudy 10 - - - -
15/09:10pm 26.2 ESE 6 8 1012.5 - - - Partly cloudy 10 - - - -
15/09:00pm 26.2 SE 6 8 1012.4 - - - Partly cloudy 10 - - - -
15/08:50pm 26.2 SE 5 7 1012.3 - - - - 10 - - - -
15/08:40pm 26.2 ESE 6 6 1012.2 - - - - 10 - - - -
15/08:30pm 26.3 E 6 8 1012.0 - - - - 10 - - - -
15/08:20pm 26.3 E 5 6 1011.9 - - - Partly cloudy 10 - - - -
15/08:10pm 26.2 ESE 5 7 1011.9 - - - Partly cloudy 10 - - - -
15/08:00pm 26.3 ESE 6 6 1011.8 - - - Partly cloudy 10 - - - -
15/07:50pm 26.4 ESE 4 5 1011.7 - - - - 10 - - - -
15/07:40pm 26.3 ESE 5 6 1011.6 - - - - 10 - - - -
15/07:30pm 26.3 ESE 5 7 1011.6 - - - - 10 - - - -
15/07:20pm 26.3 ESE 5 6 1011.5 - - - - 10 - - - -
15/07:10pm 26.4 ESE 5 6 1011.4 - - - - 10 - - - -
15/07:00pm 26.3 ESE 6 6 1011.4 - - - - 10 - - - -
15/06:50pm 26.4 ESE 6 7 1011.3 - - - - 10 - - - -
15/06:40pm 26.4 ESE 5 6 1011.1 - - - - 10 - - - -
15/06:30pm 26.4 ESE 5 6 1011.1 - - - - 10 - - - -
15/06:20pm 26.4 ESE 6 6 1011.0 - - - - 10 - - - -
15/06:10pm 26.5 ESE 5 6 1010.9 - - - - 10 - - - -
15/06:00pm 26.6 SE 5 7 1010.9 - - - - 10 - - - -
15/05:50pm 26.6 ESE 5 7 1010.9 - - - Partly cloudy 10 - - - -
15/05:40pm 26.7 ESE 5 7 1010.8 - - - Partly cloudy 10 - - - -
15/05:30pm 27.0 ESE 7 9 1010.7 - - - Partly cloudy 10 - - - -
15/05:20pm 26.9 ESE 7 9 1010.7 - - - Partly cloudy 10 - - - -
15/05:10pm 27.2 ESE 6 9 1010.7 - - - Partly cloudy 10 - - - -
15/05:00pm 27.5 SE 7 7 1010.7 - - - Partly cloudy 10 - - - -
15/04:50pm 28.4 SE 8 8 1010.8 - - - - 10 - - - -
15/04:40pm 28.3 ESE 8 10 1010.8 - - - - 10 - - - -
15/04:30pm 27.8 ESE 7 8 1010.8 - - - - 10 - - - -
15/04:20pm 27.7 SE 7 8 1010.9 - - - - 10 - - - -
15/04:10pm 27.4 E 7 9 1010.9 - - - Partly cloudy 10 - - - -
15/04:00pm 27.4 ESE 7 9 1011.0 - - - Partly cloudy 10 - - - -
15/03:50pm 27.4 E 8 11 1011.1 - - - Partly cloudy 10 - - - -
15/03:40pm 27.7 ESE 8 10 1011.1 - - - Partly cloudy 10 - - - -
15/03:30pm 28.4 SE 9 10 1011.2 - - - Partly cloudy 10 - - - -
15/03:20pm 29.1 ESE 9 13 1011.3 - - - Partly cloudy 10 - - - -
15/03:10pm 30.0 ESE 10 11 1011.4 - - - Partly cloudy 10 - - - -
15/03:00pm 28.3 ESE 10 10 1011.4 - - - - 10 - - - -
15/02:50pm 29.2 ESE 11 12 1011.5 - - - - 10 - - - -
15/02:40pm 28.9 ESE 11 12 1011.7 - - - Partly cloudy 10 - - - -
15/02:30pm 28.9 ESE 12 12 1011.9 - - - Partly cloudy 10 - - - -
15/02:20pm 30.1 ESE 11 12 1012.0 - - - Partly cloudy 10 - - - -
15/02:10pm 29.7 ESE 11 14 1012.2 - - - Partly cloudy 10 - - - -
15/02:00pm 28.2 ESE 10 12 1012.3 - - - Partly cloudy 10 - - - -
15/01:50pm 29.9 ESE 11 13 1012.4 - - - Partly cloudy 10 - - - -
15/01:40pm 29.6 ESE 11 14 1012.6 - - - Partly cloudy 10 - - - -
15/01:30pm 28.7 ESE 11 11 1012.7 - - - Partly cloudy 10 - - - -
15/01:20pm 29.9 SE 11 11 1012.9 - - - Partly cloudy 10 - - - -
15/01:10pm 29.5 ESE 11 15 1013.0 - - - Partly cloudy 10 - - - -
15/01:00pm 29.8 ESE 12 13 1013.1 - - - - 10 - - - -
15/12:50pm 30.2 ESE 11 13 1013.3 - - - Partly cloudy 10 - - - -
15/12:40pm 30.0 ESE 11 11 1013.5 - - - Partly cloudy 10 - - - -
15/12:30pm 29.8 ESE 10 15 1013.6 - - - Partly cloudy 10 - - - -
15/12:20pm 30.0 ESE 11 13 1013.8 - - - Partly cloudy 10 - - - -
15/12:10pm 29.6 ESE 9 13 1014.0 - - - Partly cloudy 10 - - - -
15/12:00pm 29.6 ESE 10 12 1014.0 - - - Partly cloudy 10 - - - -
15/11:50am 29.9 ESE 10 12 1014.1 - - - Partly cloudy 10 - - - -
15/11:40am 29.9 ESE 10 13 1014.2 - - - Partly cloudy 10 - - - -
15/11:30am 29.6 ESE 10 12 1014.2 - - - Partly cloudy 10 - - - -
15/11:20am 29.3 ESE 10 13 1014.2 - - - Partly cloudy 10 - - - -
15/11:10am 29.2 ESE 9 10 1014.3 - - - - 10 - - - -
15/10:40am 27.4 ESE 7 9 1014.4 - - - - 10 - - - -
15/10:30am 27.0 E 6 6 1014.4 - - - - 10 - - - -
15/10:20am 26.9 E 6 8 1014.3 - - - - 10 - - - -
15/10:10am 26.6 E 6 8 1014.3 - - - - 10 - - - -
15/10:00am 26.4 E 5 5 1014.2 - - - - 10 - - - -
15/09:50am 26.1 E 5 7 1014.2 - - - - 10 - - - -
15/09:40am 26.2 E 5 6 1014.1 - - - - 10 - - - -
15/09:30am 26.1 ENE 5 7 1014.1 - - - - 10 - - - -
15/09:20am 26.3 ENE 6 7 1014.1 - - - - 10 - - - -
15/09:10am 26.1 ENE 5 6 1014.0 - - - - 10 - - - -
15/09:00am 26.2 E 5 5 1013.8 - - - - 10 - - - -
15/08:50am 26.1 ENE 5 6 1013.7 - - - - 10 - - - -
15/08:40am 26.0 ENE 6 6 1013.5 - - - - 10 - - - -
15/08:30am 26.0 ENE 7 8 1013.4 - - - - 10 - - - -
15/08:20am 26.0 ENE 6 8 1013.4 - - - - 10 - - - -
15/08:10am 26.0 ENE 6 7 1013.3 - - - - 10 - - - -
15/08:00am 25.9 ENE 6 7 1013.3 - - - - 10 - - - -
15/07:50am 26.0 ENE 5 6 1013.1 - - - - 10 - - - -
15/07:40am 25.9 E 6 6 1013.1 - - - - 10 - - - -
15/07:30am 25.8 E 5 6 1012.9 - - - - 10 - - - -
15/07:20am 25.7 ENE 5 4 1012.8 - - - - 10 - - - -
15/07:10am 25.7 ENE 6 7 1012.7 - - - - 10 - - - -
15/07:00am 25.6 ENE 5 5 1012.7 - - - - 10 - - - -
15/06:50am 25.6 E 5 5 1012.7 - - - - 10 - - - -
15/06:40am 25.5 E 5 6 1012.6 - - - - 10 - - - -
15/06:30am 25.5 E 6 6 1012.3 - - - - 10 - - - -
15/06:20am 25.5 E 6 5 1012.2 - - - - 10 - - - -
15/06:10am 25.6 E 6 8 1012.1 - - - - 10 - - - -
15/06:00am 25.6 E 6 7 1012.0 - - - - 10 - - - -
15/05:50am 25.6 E 7 7 1011.8 - - - - 10 - - - -
15/05:40am 25.5 ENE 6 8 1011.6 - - - - 10 - - - -
15/05:30am 25.5 ENE 6 6 1011.4 - - - - 10 - - - -
15/05:20am 25.4 ENE 7 8 1011.4 - - - - 10 - - - -
15/05:10am 25.5 ENE 7 7 1011.3 - - - - 10 - - - -
15/05:00am 25.6 ENE 7 7 1011.3 - - - - 10 - - - -
15/04:50am 25.6 E 6 7 1011.3 - - - - 10 - - - -
15/04:40am 25.6 E 5 7 1011.3 - - - - 10 - - - -
15/04:30am 25.6 E 5 7 1011.2 - - - - 10 - - - -
15/04:20am 25.5 ENE 4 5 1011.1 - - - - 10 - - - -
15/04:10am 25.6 E 4 5 1011.0 - - - - 10 - - - -
15/04:00am 25.6 E 4 6 1011.0 - - - - 9 - - - -
15/03:50am 25.6 ENE 5 5 1010.9 - - - - 10 - - - -
15/03:40am 25.6 ENE 5 6 1011.0 - - - - 10 - - - -
15/03:30am 25.5 NE 5 7 1011.0 - - - - 10 - - - -
15/03:20am 25.5 NNE 4 6 1011.1 - - - - 10 - - - -
15/03:10am 25.5 NNE 4 7 1011.1 - - - - 9 - - - -
15/03:00am 25.4 NNE 6 7 1011.2 - - - - 10 - - - -
15/02:50am 25.4 NE 6 7 1011.3 - - - - 10 - - - -
15/02:40am 25.4 NNE 4 6 1011.4 - - - - 10 - - - -
15/02:30am 25.4 NNE 5 5 1011.4 - - - - 10 - - - -
15/02:20am 25.4 NNE 5 7 1011.5 - - - - 10 - - - -
15/02:10am 25.5 NE 4 6 1011.5 - - - - 10 - - - -
15/02:00am 25.4 NE 4 5 1011.6 - - - - 10 - - - -
15/01:50am 25.6 ENE 3 4 1011.7 - - - - 10 - - - -
15/01:40am 25.6 E 3 4 1011.8 - - - - 10 - - - -
15/01:30am 25.5 E 3 4 1011.8 - - - - 10 - - - -
15/01:20am 25.6 E 3 4 1011.9 - - - - 10 - - - -
15/01:10am 25.6 ENE 3 5 1011.9 - - - - 10 - - - -
15/01:00am 25.7 ESE 3 4 1012.1 - - - - 10 - - - -
15/12:50am 25.7 E 4 4 1012.1 - - - - 10 - - - -
15/12:40am 25.7 ESE 4 5 1012.2 - - - - 10 - - - -
15/12:30am 25.7 ESE 4 4 1012.3 - - - - 10 - - - -
15/12:20am 25.8 E 4 5 1012.4 - - - - 10 - - - -
15/12:10am 25.8 ESE 4 6 1012.5 - - - - 10 - - - -
15/12:00am 25.8 ESE 4 5 1012.4 - - - - 10 - - - -
 
Date/Time
CST
Temp

°C
Wind Pressure Rain
since 9am
mm
Weather Cloud Vis
km
Sea
Height
m
Swell
Dir
 
Speed
knots
Gust
knots
hPa Trend Height
m
Period
s
Dir
14/11:50pm 25.8 ENE 4 6 1012.5 - - - - 10 - - - -
14/11:40pm 25.7 ENE 4 5 1012.6 - - - - 10 - - - -
14/11:30pm 25.7 ENE 4 6 1012.6 - - - - 10 - - - -
14/11:20pm 25.7 ENE 5 3 1012.7 - - - - 10 - - - -
14/11:10pm 25.8 ENE 5 7 1012.6 - - - - 10 - - - -
14/11:00pm 25.8 ENE 6 6 1012.7 - - - - 10 - - - -
14/10:50pm 25.9 ENE 5 7 1012.6 - - - - 10 - - - -
14/10:40pm 25.9 NE 5 7 1012.7 - - - - 10 - - - -
14/10:30pm 25.9 NE 4 7 1012.5 - - - - 10 - - - -
14/10:20pm 26.0 NNE 5 5 1012.5 - - - - 10 - - - -
14/10:10pm 26.0 N 4 4 1012.5 - - - - 10 - - - -
14/10:00pm 26.0 NNE 5 6 1012.4 - - - - 10 - - - -
14/09:50pm 26.0 NNE 4 5 1012.5 - - - - 10 - - - -
14/09:40pm 26.1 NNE 5 6 1012.6 - - - - 10 - - - -
14/09:30pm 26.1 NE 5 7 1012.7 - - - - 10 - - - -
14/09:20pm 26.1 NE 4 6 1012.8 - - - - 10 - - - -
14/09:10pm 26.1 NNE 3 2 1012.7 - - - - 10 - - - -
14/09:00pm 26.1 NE 5 5 1012.6 - - - - 10 - - - -
14/08:50pm 26.2 NNE 5 5 1012.5 - - - - 10 - - - -
14/08:40pm 26.1 NNE 7 6 1012.3 - - - - 10 - - - -
14/08:30pm 26.2 NNE 6 10 1012.0 - - - - 10 - - - -
14/08:20pm 26.2 NE 5 7 1012.1 - - - - 10 - - - -
14/08:10pm 26.2 NE 5 5 1012.1 - - - - 10 - - - -
14/08:00pm 26.2 ENE 5 6 1012.0 - - - - 10 - - - -
14/07:50pm 26.2 ENE 5 5 1011.9 - - - - 10 - - - -
14/07:40pm 26.3 ENE 5 6 1011.8 - - - - 10 - - - -
14/07:30pm 26.3 ENE 5 7 1011.7 - - - - 10 - - - -
14/07:20pm 26.3 ENE 5 7 1011.6 - - - - 10 - - - -
14/07:10pm 26.3 NE 5 7 1011.6 - - - - 10 - - - -
14/07:00pm 26.3 NE 5 7 1011.5 - - - - 10 - - - -
14/06:50pm 26.4 ENE 6 6 1011.4 - - - - 10 - - - -
14/06:40pm 26.5 NE 7 9 1011.3 - - - - 10 - - - -
14/06:30pm 26.7 NE 6 7 1011.2 - - - - 10 - - - -
14/06:20pm 26.7 NE 7 10 1011.1 - - - - 10 - - - -
14/06:10pm 26.7 ENE 6 9 1011.0 - - - - 10 - - - -
14/06:00pm 26.7 NE 7 9 1011.0 - - - - 10 - - - -
14/05:50pm 26.6 NE 8 8 1011.0 - - - - 10 - - - -
14/05:40pm 26.7 NE 7 10 1011.0 - - - - 10 - - - -
14/05:30pm 26.9 NE 8 9 1011.0 - - - Partly cloudy 10 - - - -
14/05:20pm 26.9 NE 8 8 1010.9 - - - - 10 - - - -
14/05:10pm 26.9 NE 8 9 1010.8 - - - Partly cloudy 10 - - - -
14/05:00pm 27.0 NE 8 10 1010.8 - - - Partly cloudy 10 - - - -
14/04:50pm 26.9 NE 7 11 1010.8 - - - Partly cloudy 10 - - - -
14/04:40pm 26.8 NE 5 9 1010.8 - - - - 10 - - - -
14/04:30pm 26.8 NE 6 8 1010.8 - - - - 10 - - - -
14/04:20pm 26.7 NE 7 10 1010.9 - - - Partly cloudy 10 - - - -
14/04:10pm 26.7 NE 7 10 1010.9 - - - Partly cloudy 10 - - - -
14/04:00pm 26.9 NE 8 9 1010.9 - - - Partly cloudy 10 - - - -
14/03:50pm 27.2 NE 8 11 1011.0 - - - - 10 - - - -
14/03:40pm 27.1 NE 7 7 1010.9 - - - Partly cloudy 10 - - - -
14/03:30pm 26.8 NE 6 6 1010.9 - - - Partly cloudy 10 - - - -
14/03:20pm 26.6 ENE 6 7 1011.0 - - - Partly cloudy 10 - - - -
14/03:10pm 26.7 ENE 7 8 1011.1 - - - Partly cloudy 10 - - - -
14/03:00pm 27.0 ENE 8 9 1011.1 - - - Partly cloudy 10 - - - -
14/02:50pm 27.4 ENE 7 10 1011.3 - - - Partly cloudy 10 - - - -
14/02:40pm 26.8 ENE 7 9 1011.4 - - - Partly cloudy 10 - - - -
14/02:30pm 26.8 ENE 7 8 1011.4 - - - Partly cloudy 10 - - - -
14/02:20pm 26.8 ENE 7 9 1011.4 - - - Partly cloudy 10 - - - -
14/02:10pm 27.0 ENE 7 9 1011.6 - - - Partly cloudy 10 - - - -
14/02:00pm 27.1 ENE 7 9 1011.8 - - - Partly cloudy 10 - - - -
14/01:50pm 27.0 ENE 7 9 1011.9 - - - - 10 - - - -
14/01:40pm 27.3 E 6 6 1012.0 - - - - 10 - - - -
14/01:30pm 27.6 E 6 8 1012.3 - - - - 10 - - - -
14/01:20pm 28.0 E 7 8 1012.4 - - - Partly cloudy 10 - - - -
14/01:10pm 28.4 ESE 8 9 1012.7 - - - Partly cloudy 10 - - - -
14/01:00pm 29.9 ESE 8 9 1012.9 - - - Partly cloudy 10 - - - -
14/12:50pm 29.4 E 9 10 1013.1 - - - - 10 - - - -
14/12:40pm 29.4 E 8 8 1013.2 - - - Partly cloudy 10 - - - -
14/12:30pm 28.9 E 8 9 1013.3 - - - - 10 - - - -
14/12:20pm 29.2 E 8 11 1013.4 - - - - 10 - - - -
14/12:10pm 28.8 E 8 9 1013.5 - - - - 10 - - - -
14/12:00pm 28.2 E 7 9 1013.6 - - - Partly cloudy 10 - - - -
14/11:50am 28.8 E 8 9 1013.8 - - - Partly cloudy 10 - - - -
14/11:40am 27.7 E 8 9 1013.9 - - - Partly cloudy 10 - - - -
14/11:30am 28.3 E 7 9 1014.0 - - - Partly cloudy 10 - - - -
14/11:20am 26.9 ENE 6 7 1013.9 - - - Partly cloudy 10 - - - -
14/11:10am 26.9 ENE 6 8 1013.9 - - - Partly cloudy 10 - - - -
14/11:00am 26.7 ENE 6 7 1014.0 - - - - 10 - - - -
14/10:40am 26.4 NE 7 7 1014.0 - - - - 10 - - - -
14/10:30am 26.2 NE 5 8 1013.9 - - - - 10 - - - -
14/10:20am 26.0 NE 5 6 1013.9 - - - - 10 - - - -
14/10:10am 26.3 ENE 5 6 1013.9 - - - - 10 - - - -
14/10:00am 26.1 NE 5 5 1013.9 - - - - 10 - - - -
14/09:50am 25.9 NE 6 6 1013.8 - - - - 10 - - - -
14/09:40am 25.9 NE 6 8 1013.7 - - - - 10 - - - -
14/09:30am 25.9 NE 7 9 1013.7 - - - - 10 - - - -
14/09:20am 26.0 ENE 6 9 1013.6 - - - - 10 - - - -
14/09:10am 26.0 NE 6 7 1013.6 - - - - 10 - - - -
14/09:00am 25.9 NE 6 6 1013.5 - - - Partly cloudy 10 - - - -
14/08:50am 25.9 NE 7 6 1013.5 - - - Partly cloudy 10 - - - -
14/08:40am 25.9 NE 7 9 1013.4 - - - Partly cloudy 10 - - - -
14/08:30am 25.9 NE 8 7 1013.4 - - - Partly cloudy 10 - - - -
14/08:20am 25.9 NE 8 7 1013.3 - - - Partly cloudy 10 - - - -
14/08:10am 25.9 NE 8 9 1013.2 - - - Partly cloudy 10 - - - -
14/08:00am 25.8 NE 7 9 1013.1 - - - Partly cloudy 10 - - - -
14/07:50am 25.8 NE 8 10 1013.0 - - - Partly cloudy 10 - - - -
14/07:40am 25.7 NE 7 8 1013.0 - - - Partly cloudy 10 - - - -
14/07:30am 25.7 ENE 7 8 1012.9 - - - Partly cloudy 10 - - - -
14/07:20am 25.6 NE 7 7 1012.9 - - - Partly cloudy 10 - - - -
14/07:10am 25.6 NE 7 9 1012.9 - - - Partly cloudy 10 - - - -
14/07:00am 25.6 ENE 6 7 1012.8 - - - Partly cloudy 10 - - - -
14/06:50am 25.5 NE 7 9 1012.6 - - - Partly cloudy 10 - - - -
14/06:40am 25.5 NE 7 7 1012.5 - - - Partly cloudy 10 - - - -
14/06:30am 25.5 NE 7 7 1012.3 - - - Partly cloudy 10 - - - -
14/06:20am 25.5 NE 6 7 1012.3 - - - Partly cloudy 10 - - - -
14/06:10am 25.5 NE 6 6 1012.2 - - - Partly cloudy 10 - - - -
14/06:00am 25.5 NE 6 7 1012.1 - - - Partly cloudy 10 - - - -
14/05:50am 25.5 NNE 7 7 1012.0 - - - Partly cloudy 10 - - - -
14/05:40am 25.5 NNE 6 7 1011.9 - - - Partly cloudy 10 - - - -
14/05:30am 25.5 NNE 7 6 1011.7 - - - Partly cloudy 10 - - - -
14/05:20am 25.5 NNE 7 8 1011.7 - - - - 10 - - - -
14/05:10am 25.5 NNE 7 8 1011.7 - - - - 10 - - - -
14/05:00am 25.6 NNE 8 9 1011.7 - - - - 10 - - - -
14/04:50am 25.4 - 7 7 1011.5 - - - - 10 - - - -
14/04:40am 25.5 N 6 8 1011.4 - - - - 10 - - - -
14/04:30am 25.5 NNE 6 7 1011.5 - - - - 10 - - - -
14/04:20am 25.5 NNE 6 8 1011.5 - - - - 10 - - - -
14/04:10am 25.7 NNE 6 6 1011.7 - - - - 10 - - - -
14/04:00am 25.8 NNE 4 7 1011.5 - - - - 10 - - - -
14/03:50am 25.7 NNE 4 4 1011.5 - - - - 10 - - - -
14/03:40am 25.7 NNE 4 5 1011.6 - - - - 10 - - - -
14/03:30am 25.6 - 3 5 1011.4 - - - - 10 - - - -
14/03:20am 25.7 N 4 5 1011.6 - - - - 10 - - - -
14/03:10am 25.7 NNE 4 4 1011.8 - - - - 10 - - - -
14/03:00am 25.8 N 4 5 1011.9 - - - - 10 - - - -
14/02:50am 25.8 NNE 4 5 1011.9 - - - - 9 - - - -
14/02:40am 25.8 NNE 4 5 1012.0 - - - - 10 - - - -
14/02:30am 25.8 NNE 4 5 1012.0 - - - - 10 - - - -
14/02:20am 25.8 NE 5 5 1012.1 - - - - 10 - - - -
14/02:10am 25.9 NE 4 5 1012.0 - - - - 10 - - - -
14/02:00am 25.9 NE 5 6 1012.0 - - - - 10 - - - -
14/01:50am 25.9 NE 5 7 1012.1 - - - - 10 - - - -
14/01:40am 26.0 NE 5 6 1012.1 - - - - 10 - - - -
14/01:30am 25.9 ENE 6 7 1012.2 - - - - 10 - - - -
14/01:20am 26.0 NE 5 7 1012.3 - - - - 10 - - - -
14/01:10am 26.0 ENE 5 6 1012.4 - - - - 10 - - - -
14/01:00am 25.9 ENE 4 5 1012.6 - - - - 10 - - - -
14/12:50am 26.0 E 5 5 1012.8 - - - - 10 - - - -
14/12:40am 26.0 E 5 6 1012.8 - - - - 10 - - - -
14/12:30am 26.0 E 6 7 1013.0 - - - - 10 - - - -
14/12:20am 26.0 E 6 7 1013.1 - - - - 10 - - - -
14/12:10am 26.4 ESE 6 6 1013.2 - - - - 10 - - - -
14/12:00am 26.2 E 8 10 1013.3 - - - - 10 - - - -
 
Date/Time
CST
Temp

°C
Wind Pressure Rain
since 9am
mm
Weather Cloud Vis
km
Sea
Height
m
Swell
Dir
 
Speed
knots
Gust
knots
hPa Trend Height
m
Period
s
Dir
13/11:50pm 26.4 E 8 12 1013.3 - - - - 10 - - - -
13/11:40pm 26.5 ESE 8 10 1013.4 - - - - 10 - - - -
13/11:30pm 26.5 ESE 8 8 1013.5 - - - - 10 - - - -
13/11:20pm 26.6 ESE 8 9 1013.5 - - - - 10 - - - -
13/11:10pm 26.6 ESE 9 12 1013.6 - - - - 10 - - - -
13/11:00pm 26.7 ESE 9 10 1013.6 - - - - 10 - - - -
13/10:50pm 26.7 ESE 10 13 1013.5 - - - - 10 - - - -
13/10:40pm 26.7 ESE 9 11 1013.6 - - - - 10 - - - -
13/10:30pm 26.8 ESE 8 14 1013.6 - - - - 10 - - - -
13/10:20pm 26.8 ESE 7 9 1013.6 - - - - 10 - - - -
13/10:10pm 26.9 ESE 7 7 1013.5 - - - - 10 - - - -
13/10:00pm 26.9 SE 7 8 1013.6 - - - - 10 - - - -
13/09:50pm 26.9 ESE 8 8 1013.6 - - - - 10 - - - -
13/09:40pm 26.8 ESE 9 10 1013.5 - - - - 10 - - - -
13/09:30pm 26.8 SE 10 10 1013.4 - - - - 10 - - - -
13/09:20pm 26.8 ESE 8 11 1013.3 - - - - 10 - - - -
13/09:10pm 26.7 SE 8 8 1013.2 - - - - 10 - - - -
13/09:00pm 26.7 SE 8 10 1013.1 - - - - 10 - - - -
13/08:50pm 26.6 SE 8 8 1013.0 - - - - 10 - - - -
13/08:40pm 26.6 SE 8 9 1012.9 - - - - 10 - - - -
13/08:30pm 26.7 SE 8 8 1012.7 - - - - 10 - - - -
13/08:20pm 26.7 SE 8 9 1012.6 - - - - 10 - - - -
13/08:10pm 26.7 SE 7 8 1012.5 - - - - 10 - - - -
13/08:00pm 26.8 SSE 7 8 1012.5 - - - - 10 - - - -
13/07:50pm 26.8 SSE 6 8 1012.3 - - - - 10 - - - -
13/07:40pm 26.7 ESE 5 6 1012.2 - - - - 10 - - - -
13/07:30pm 26.8 SE 5 6 1012.1 - - - - 10 - - - -
13/07:20pm 26.8 SE 5 7 1012.0 - - - - 10 - - - -
13/07:10pm 26.8 SE 5 5 1012.0 - - - - 10 - - - -
13/07:00pm 26.9 SE 3 5 1011.9 - - - - 10 - - - -
13/06:50pm 27.0 SSE 4 6 1011.8 - - - - 10 - - - -
13/06:40pm 27.0 SSE 4 4 1011.8 - - - - 10 - - - -
13/06:30pm 27.0 SSE 5 7 1011.7 - - - - 10 - - - -
13/06:20pm 27.0 SSE 5 6 1011.6 - - - - 10 - - - -
13/06:10pm 27.3 SSE 5 5 1011.5 - - - - 10 - - - -
13/06:00pm 27.2 SSE 6 7 1011.4 - - - - 10 - - - -
13/05:50pm 27.0 SSE 4 6 1011.3 - - - - 10 - - - -
13/05:40pm 27.2 SSE 5 6 1011.4 - - - - 10 - - - -
13/05:30pm 27.0 SSE 5 5 1011.4 - - - - 10 - - - -
13/05:20pm 27.0 SSE 5 5 1011.4 - - - - 10 - - - -
13/05:10pm 27.0 SSE 5 6 1011.3 - - - - 10 - - - -
13/05:00pm 27.0 SE 6 6 1011.4 - - - - 10 - - - -
13/04:50pm 27.0 SE 6 7 1011.4 - - - - 10 - - - -
13/04:40pm 27.1 SE 5 5 1011.4 - - - - 10 - - - -
13/04:30pm 27.1 SE 5 6 1011.4 - - - - 10 - - - -
13/04:20pm 27.6 ESE 5 6 1011.4 - - - - 10 - - - -
13/04:10pm 29.4 SE 6 6 1011.4 - - - - 10 - - - -
13/04:00pm 30.7 ESE 4 5 1011.3 - - - - 10 - - - -
13/03:50pm 29.6 SSE 3 5 1011.4 - - - - 10 - - - -
13/03:40pm 30.1 SSE 4 5 1011.5 - - - - 10 - - - -
13/03:30pm 29.8 SSE 4 5 1011.5 - - - - 10 - - - -
13/03:20pm 29.3 SSE 3 4 1011.6 - - - - 10 - - - -
13/03:10pm 29.0 S 3 5 1011.7 - - - - 10 - - - -
13/03:00pm 29.5 SSE 3 4 1011.7 - - - - 10 - - - -
13/02:50pm 27.5 SSE 2 2 1011.8 - - - - 10 - - - -
13/02:40pm 27.8 NNW 2 3 1011.9 - - - - 10 - - - -
13/02:30pm 27.9 ENE 2 2 1012.0 - - - - 10 - - - -
13/02:20pm 27.2 N 2 2 1012.2 - - - - 10 - - - -
13/02:10pm 27.0 N 2 3 1012.2 - - - - 10 - - - -
13/02:00pm 27.4 WSW 1 1 1012.4 - - - - 10 - - - -
13/01:50pm 26.8 NNW 1 2 1012.6 - - - - 10 - - - -
13/01:40pm 27.5 NNE 2 1 1012.8 - - - Partly cloudy 10 - - - -
13/01:30pm 27.1 N 1 3 1013.0 - - - - 10 - - - -
13/01:20pm 26.9 N 1 2 1013.1 - - - - 10 - - - -
13/01:10pm 27.1 N 1 3 1013.3 - - - - 10 - - - -
13/01:00pm 27.0 NW 1 2 1013.5 - - - - 10 - - - -
13/12:50pm 27.7 N 2 2 1013.8 - - - - 10 - - - -
13/12:40pm 26.4 N 3 4 1013.9 - - - - 10 - - - -

Other Formats:

Comma delimited format used in spreadsheet applications
http://www.bom.gov.au/fwo/IDD60701/IDD60701.95100.axf

JavaScript Object Notation format (JSON) in row-major order
http://www.bom.gov.au/fwo/IDD60701/IDD60701.95100.json